| time (UTC) | temp F | wind direction | speed MPH | gust MPH | rain 1hr in | rain 24hr in | rain mn in | humidity % | barometer mb |
| 20260503184055 | 52 | 285 | 2.0 | 3.0 | 0.00 | 0.00 | 0.00 | 54 | |
| 20260503183551 | 52 | 256 | 4.0 | 5.0 | 0.00 | 0.00 | 0.00 | 51 | |
| 20260503183049 | 51 | 174 | 1.0 | 6.0 | 0.00 | 0.00 | 0.00 | 53 | |
| 20260503182547 | 52 | 304 | 0.0 | 3.0 | 0.00 | 0.00 | 0.00 | 57 | |
| 20260503182045 | 52 | 55 | 0.0 | 2.0 | 0.00 | 0.00 | 0.00 | 56 | |
| 20260503181541 | 53 | 148 | 0.0 | 3.0 | 0.00 | 0.00 | 0.00 | 54 | |
| 20260503181038 | 54 | 138 | 1.0 | 2.0 | 0.00 | 0.00 | 0.00 | 52 | |
| 20260503180535 | 56 | 286 | 1.0 | 6.0 | 0.00 | 0.00 | 0.00 | 49 | |
| 20260503180032 | 56 | 87 | 1.0 | 3.0 | 0.00 | 0.00 | 0.00 | 52 | |
| 20260503175530 | 54 | 169 | 1.0 | 7.0 | 0.00 | 0.00 | 0.00 | 51 | |
| 20260503175027 | 53 | 84 | 0.0 | 2.0 | 0.00 | 0.00 | 0.00 | 57 | |
| 20260503174524 | 51 | 190 | 5.0 | 8.0 | 0.00 | 0.00 | 0.00 | 56 | |
| 20260503174020 | 51 | 184 | 3.0 | 5.0 | 0.00 | 0.00 | 0.00 | 57 | |
| 20260503173515 | 50 | 314 | 1.0 | 6.0 | 0.00 | 0.00 | 0.00 | 58 | |
| 20260503173012 | 50 | 241 | 1.0 | 9.0 | 0.00 | 0.00 | 0.00 | 57 | |
| 20260503172510 | 51 | 309 | 1.0 | 3.0 | 0.00 | 0.00 | 0.00 | 60 | |
| 20260503172006 | 51 | 227 | 1.0 | 2.0 | 0.00 | 0.00 | 0.00 | 57 | |
| 20260503171503 | 51 | 306 | 1.0 | 6.0 | 0.00 | 0.00 | 0.00 | 58 | |
| 20260503171000 | 52 | 164 | 3.0 | 5.0 | 0.00 | 0.00 | 0.00 | 57 | |
| 20260503170456 | 52 | 282 | 3.0 | 5.0 | 0.00 | 0.00 | 0.00 | 57 | |
| 20260503150849 | 46 | 118 | 2.0 | 7.0 | 0.00 | 0.00 | 0.00 | 74 | |
| 20260503150345 | 46 | 169 | 1.0 | 6.0 | 0.00 | 0.00 | 0.00 | 74 | |
| 20260503140309 | 47 | 327 | 2.0 | 5.0 | 0.00 | 0.00 | 0.00 | 78 | |
| 20260503131239 | 48 | 273 | 0.0 | 2.0 | 0.00 | 0.00 | 0.00 | 76 | |
| 20260503130736 | 50 | 343 | 1.0 | 5.0 | 0.00 | 0.00 | 0.00 | 77 | |
| 20260503130234 | 47 | 128 | 1.0 | 2.0 | 0.00 | 0.00 | 0.00 | 79 | |
| 20260503120200 | 46 | 57 | 0.0 | 5.0 | 0.00 | 0.00 | 0.00 | 81 | |
| 20260503110627 | 42 | 155 | 1.0 | 2.0 | 0.00 | 0.00 | 0.00 | 87 | |
| 20260503110124 | 42 | 6 | 0.0 | 1.0 | 0.00 | 0.00 | 0.00 | 88 | |
| 20260503081440 | 44 | 310 | 0.0 | 1.0 | 0.00 | 0.00 | 0.00 | 84 | |
| 20260503080937 | 44 | 291 | 0.0 | 1.0 | 0.00 | 0.00 | 0.00 | 84 | |
| 20260503080433 | 44 | 293 | 1.0 | 1.0 | 0.00 | 0.00 | 0.00 | 84 | |
| 20260503072910 | 43 | 1 | 0.0 | 1.0 | 0.00 | 0.00 | 0.00 | 83 | |
| 20260503072407 | 43 | 14 | 0.0 | 0.0 | 0.00 | 0.00 | 0.00 | 82 | |
| 20260503071904 | 43 | 23 | 0.0 | 1.0 | 0.00 | 0.00 | 0.00 | 82 | |
| 20260503071401 | 43 | 26 | 0.0 | 0.0 | 0.00 | 0.00 | 0.00 | 81 | |
| 20260503070856 | 43 | 9 | 0.0 | 1.0 | 0.00 | 0.00 | 0.00 | 80 | |
| 20260503070355 | 43 | 10 | 0.0 | 1.0 | 0.00 | 0.00 | 0.00 | 80 | |
| 20260503060320 | 45 | 29 | 0.0 | 1.0 | 0.00 | 0.00 | 0.00 | 76 | |
| 20260503054808 | 45 | 12 | 1.0 | 1.0 | 0.00 | 0.00 | 0.00 | 77 | |
| 20260503054304 | 46 | 194 | 0.0 | 1.0 | 0.00 | 0.00 | 0.00 | 74 | |
| 20260503053802 | 45 | 174 | 2.0 | 2.0 | 0.00 | 0.00 | 0.00 | 74 | |
| 20260503053300 | 45 | 12 | 0.0 | 1.0 | 0.00 | 0.00 | 0.00 | 76 | |
| 20260503052756 | 45 | 288 | 0.0 | 2.0 | 0.00 | 0.00 | 0.00 | 75 | |
| 20260503052253 | 45 | 32 | 0.0 | 1.0 | 0.00 | 0.00 | 0.00 | 75 | |
| 20260503051748 | 45 | 91 | 0.0 | 2.0 | 0.00 | 0.00 | 0.00 | 75 | |
| 20260503051246 | 45 | 58 | 2.0 | 2.0 | 0.00 | 0.00 | 0.00 | 76 | |
| 20260503050742 | 45 | 73 | 0.0 | 1.0 | 0.00 | 0.00 | 0.00 | 78 | |
| 20260503050239 | 46 | 359 | 0.0 | 1.0 | 0.00 | 0.00 | 0.00 | 79 | |
| 20260503045736 | 46 | 47 | 0.0 | 2.0 | 0.00 | 0.00 | 0.00 | 78 | |
| 20260503045234 | 46 | 305 | 1.0 | 1.0 | 0.00 | 0.00 | 0.00 | 77 | |
| 20260503044730 | 46 | 295 | 0.0 | 1.0 | 0.00 | 0.00 | 0.00 | 76 | |
| 20260503044228 | 46 | 334 | 0.0 | 2.0 | 0.00 | 0.00 | 0.00 | 78 | |
| 20260503043724 | 46 | 317 | 0.0 | 1.0 | 0.00 | 0.00 | 0.00 | 81 | |
| 20260503043222 | 47 | 313 | 0.0 | 2.0 | 0.00 | 0.00 | 0.00 | 80 | |
| 20260503042718 | 47 | 337 | 0.0 | 0.0 | 0.00 | 0.00 | 0.00 | 81 | |
| 20260503042215 | 46 | 92 | 0.0 | 1.0 | 0.00 | 0.00 | 0.00 | 82 | |
| 20260503041710 | 46 | 77 | 1.0 | 2.0 | 0.00 | 0.00 | 0.00 | 82 | |
| 20260503041208 | 47 | 323 | 1.0 | 1.0 | 0.00 | 0.00 | 0.00 | 85 | |
| 20260503040705 | 47 | 327 | 1.0 | 1.0 | 0.00 | 0.00 | 0.00 | 86 | |
| 20260503040203 | 47 | 313 | 0.0 | 1.0 | 0.00 | 0.00 | 0.00 | 85 | |
| 20260503035659 | 47 | 287 | 1.0 | 1.0 | 0.00 | 0.07 | 0.07 | 87 | |
| 20260503035157 | 47 | 338 | 0.0 | 1.0 | 0.00 | 0.07 | 0.07 | 90 | |
| 20260503034654 | 46 | 312 | 0.0 | 1.0 | 0.00 | 0.07 | 0.07 | 90 | |
| 20260503034151 | 46 | 340 | 0.0 | 0.0 | 0.00 | 0.07 | 0.07 | 96 | |
| 20260503033649 | 46 | 321 | 0.0 | 2.0 | 0.00 | 0.07 | 0.07 | 99 | |
| 20260503033146 | 46 | 327 | 0.0 | 1.0 | 0.00 | 0.07 | 0.07 | 99 | |
| 20260503032644 | 47 | 356 | 0.0 | 0.0 | 0.00 | 0.07 | 0.07 | 99 | |
| 20260503032143 | 48 | 315 | 0.0 | 0.0 | 0.00 | 0.07 | 0.07 | 99 | |
| 20260503031639 | 48 | 311 | 0.0 | 0.0 | 0.00 | 0.07 | 0.07 | 99 | |
| 20260503031137 | 48 | 297 | 0.0 | 0.0 | 0.00 | 0.07 | 0.07 | 99 | |
| 20260503030633 | 48 | 293 | 0.0 | 0.0 | 0.00 | 0.07 | 0.07 | 99 | |
| 20260503030130 | 48 | 302 | 0.0 | 0.0 | 0.00 | 0.07 | 0.07 | 99 | |
| 20260503025626 | 48 | 313 | 0.0 | 0.0 | 0.00 | 0.07 | 0.07 | 99 | |
| 20260503025125 | 48 | 317 | 0.0 | 0.0 | 0.00 | 0.07 | 0.07 | 99 | |
| 20260503024621 | 48 | 317 | 0.0 | 0.0 | 0.00 | 0.07 | 0.07 | 99 | |
| 20260503024118 | 48 | 318 | 0.0 | 0.0 | 0.00 | 0.07 | 0.07 | 99 | |
| 20260503023615 | 48 | 291 | 0.0 | 1.0 | 0.00 | 0.07 | 0.07 | 99 | |
| 20260503023112 | 48 | 341 | 0.0 | 0.0 | 0.00 | 0.07 | 0.07 | 99 | |
| 20260503022608 | 48 | 345 | 0.0 | 0.0 | 0.00 | 0.07 | 0.07 | 99 | |
| 20260503022102 | 48 | 352 | 0.0 | 0.0 | 0.00 | 0.07 | 0.07 | 99 | |
| 20260503021600 | 48 | 20 | 0.0 | 0.0 | 0.00 | 0.07 | 0.07 | 99 | |
| 20260503021056 | 48 | 20 | 0.0 | 0.0 | 0.00 | 0.07 | 0.07 | 99 | |
| 20260503020554 | 48 | 20 | 0.0 | 0.0 | 0.00 | 0.07 | 0.07 | 99 | |
| 20260503020050 | 48 | 20 | 0.0 | 0.0 | 0.00 | 0.07 | 0.07 | 99 | |
| 20260503015547 | 48 | 20 | 0.0 | 0.0 | 0.00 | 0.07 | 0.07 | 99 | |
| 20260503015045 | 48 | 20 | 0.0 | 0.0 | 0.00 | 0.07 | 0.07 | 99 | |
| 20260503014540 | 48 | 20 | 0.0 | 0.0 | 0.00 | 0.07 | 0.07 | 99 | |
| 20260503014038 | 48 | 20 | 0.0 | 0.0 | 0.00 | 0.07 | 0.07 | 99 | |
| 20260503013535 | 48 | 21 | 0.0 | 0.0 | 0.00 | 0.07 | 0.07 | 99 | |
| 20260503013033 | 48 | 20 | 0.0 | 1.0 | 0.00 | 0.07 | 0.07 | 99 | |
| 20260503012530 | 48 | 338 | 0.0 | 0.0 | 0.00 | 0.07 | 0.07 | 99 | |
| 20260503012026 | 48 | 310 | 0.0 | 0.0 | 0.00 | 0.07 | 0.07 | 99 | |
| 20260503011523 | 48 | 310 | 0.0 | 0.0 | 0.00 | 0.07 | 0.07 | 99 | |
| 20260503011021 | 48 | 310 | 0.0 | 0.0 | 0.00 | 0.07 | 0.07 | 99 | |
| 20260503010517 | 48 | 310 | 0.0 | 0.0 | 0.00 | 0.07 | 0.07 | 99 | |
| 20260503010015 | 48 | 310 | 0.0 | 0.0 | 0.00 | 0.07 | 0.07 | 99 | |
| 20260503005512 | 48 | 310 | 0.0 | 0.0 | 0.00 | 0.07 | 0.07 | 99 | |
| 20260503005009 | 48 | 310 | 0.0 | 0.0 | 0.00 | 0.07 | 0.07 | 99 | |
| 20260503004504 | 48 | 310 | 0.0 | 1.0 | 0.00 | 0.07 | 0.07 | 99 | |
| 20260503004003 | 48 | 308 | 0.0 | 1.0 | 0.00 | 0.07 | 0.07 | 99 | |
| 20260503003459 | 48 | 303 | 0.0 | 0.0 | 0.00 | 0.07 | 0.07 | 99 | |
| 20260503002956 | 48 | 313 | 1.0 | 1.0 | 0.00 | 0.07 | 0.07 | 99 | |
| 20260503002453 | 48 | 306 | 1.0 | 2.0 | 0.00 | 0.07 | 0.07 | 99 | |
| 20260503001949 | 48 | 298 | 2.0 | 2.0 | 0.00 | 0.07 | 0.07 | 99 | |
| 20260503001446 | 48 | 296 | 0.0 | 0.0 | 0.00 | 0.07 | 0.07 | 99 | |
| 20260503000944 | 48 | 296 | 0.0 | 0.0 | 0.00 | 0.07 | 0.07 | 99 | |
| 20260503000441 | 48 | 298 | 0.0 | 0.0 | 0.00 | 0.07 | 0.07 | 99 | |
| 20260502235938 | 49 | 297 | 0.0 | 1.0 | 0.00 | 0.07 | 0.07 | 99 | |
| 20260502235435 | 49 | 320 | 0.0 | 0.0 | 0.00 | 0.07 | 0.07 | 99 | |
| 20260502234932 | 49 | 311 | 0.0 | 1.0 | 0.00 | 0.07 | 0.07 | 99 | |
| 20260502234429 | 49 | 324 | 0.0 | 1.0 | 0.00 | 0.07 | 0.07 | 98 | |
| 20260502233926 | 49 | 278 | 1.0 | 1.0 | 0.00 | 0.07 | 0.07 | 98 | |
| 20260502233421 | 49 | 271 | 0.0 | 0.0 | 0.00 | 0.07 | 0.07 | 97 | |
| 20260502232919 | 50 | 270 | 1.0 | 1.0 | 0.00 | 0.07 | 0.07 | 97 | |
| 20260502232414 | 50 | 260 | 0.0 | 2.0 | 0.00 | 0.07 | 0.07 | 97 | |
| 20260502231912 | 50 | 283 | 2.0 | 2.0 | 0.00 | 0.07 | 0.07 | 97 | |
| 20260502231409 | 50 | 289 | 0.0 | 1.0 | 0.00 | 0.07 | 0.07 | 97 | |
| 20260502230907 | 50 | 290 | 0.0 | 1.0 | 0.00 | 0.07 | 0.07 | 98 | |
| 20260502230405 | 50 | 293 | 0.0 | 1.0 | 0.00 | 0.07 | 0.07 | 98 | |
| 20260502225902 | 50 | 304 | 0.0 | 1.0 | 0.00 | 0.07 | 0.07 | 98 | |
| 20260502225358 | 50 | 301 | 0.0 | 1.0 | 0.00 | 0.07 | 0.07 | 98 | |
| 20260502224855 | 50 | 323 | 2.0 | 2.0 | 0.00 | 0.07 | 0.07 | 98 | |
| 20260502224351 | 50 | 235 | 1.0 | 2.0 | 0.00 | 0.07 | 0.07 | 98 | |
| 20260502223849 | 50 | 282 | 1.0 | 1.0 | 0.00 | 0.07 | 0.07 | 98 | |
| 20260502223347 | 50 | 283 | 0.0 | 1.0 | 0.00 | 0.07 | 0.07 | 98 | |
| 20260502222844 | 50 | 277 | 0.0 | 0.0 | 0.00 | 0.07 | 0.07 | 98 | |
| 20260502222342 | 50 | 247 | 0.0 | 1.0 | 0.00 | 0.07 | 0.07 | 98 | |
| 20260502221837 | 50 | 276 | 0.0 | 1.0 | 0.00 | 0.07 | 0.07 | 97 | |
| 20260502221334 | 50 | 263 | 0.0 | 1.0 | 0.00 | 0.07 | 0.07 | 97 | |
| 20260502220831 | 50 | 286 | 0.0 | 0.0 | 0.00 | 0.07 | 0.07 | 97 | |
| 20260502220327 | 50 | 287 | 0.0 | 0.0 | 0.00 | 0.07 | 0.07 | 96 | |
| 20260502215823 | 50 | 275 | 1.0 | 2.0 | 0.00 | 0.07 | 0.07 | 96 | |
| 20260502215321 | 50 | 274 | 0.0 | 1.0 | 0.00 | 0.07 | 0.07 | 95 | |
| 20260502214818 | 50 | 285 | 1.0 | 1.0 | 0.05 | 0.07 | 0.07 | 95 | |
| 20260502214315 | 50 | 285 | 0.0 | 0.0 | 0.05 | 0.07 | 0.07 | 95 | |
| 20260502213812 | 50 | 285 | 0.0 | 0.0 | 0.00 | 0.06 | 0.06 | 95 | |
| 20260502213309 | 50 | 288 | 1.0 | 2.0 | 0.00 | 0.06 | 0.06 | 94 | |
| 20260502212808 | 50 | 311 | 1.0 | 2.0 | 0.07 | 0.06 | 0.06 | 93 | |
| 20260502212306 | 50 | 270 | 2.0 | 5.0 | 0.07 | 0.06 | 0.06 | 92 | |
| 20260502211802 | 50 | 283 | 0.0 | 3.0 | 0.00 | 0.05 | 0.05 | 92 | |
| 20260502211258 | 51 | 290 | 2.0 | 5.0 | 0.00 | 0.05 | 0.05 | 90 | |
| 20260502210755 | 51 | 282 | 3.0 | 5.0 | 0.00 | 0.05 | 0.05 | 88 | |
| 20260502210253 | 51 | 267 | 3.0 | 6.0 | 0.00 | 0.05 | 0.05 | 86 | |
| 20260502205750 | 51 | 297 | 3.0 | 6.0 | 0.00 | 0.05 | 0.05 | 86 | |
| 20260502205246 | 53 | 242 | 2.0 | 6.0 | 0.00 | 0.05 | 0.05 | 84 | |
| 20260502204743 | 55 | 322 | 0.0 | 2.0 | 0.00 | 0.05 | 0.05 | 75 | |
| 20260502204240 | 55 | 284 | 2.0 | 3.0 | 0.00 | 0.05 | 0.05 | 73 | |
| 20260502203738 | 55 | 30 | 1.0 | 5.0 | 0.00 | 0.05 | 0.05 | 73 | |
| 20260502203236 | 57 | 105 | 0.0 | 3.0 | 0.00 | 0.05 | 0.05 | 70 | |
| 20260502202730 | 58 | 23 | 1.0 | 3.0 | 0.00 | 0.05 | 0.05 | 69 | |
| 20260502202228 | 59 | 289 | 3.0 | 6.0 | 0.00 | 0.05 | 0.05 | 65 | |
| 20260502201725 | 60 | 207 | 3.0 | 6.0 | 0.00 | 0.05 | 0.05 | 64 | |
| 20260502201222 | 60 | 205 | 4.0 | 6.0 | 0.00 | 0.05 | 0.05 | 63 | |
| 20260502200718 | 60 | 121 | 1.0 | 6.0 | 0.00 | 0.05 | 0.05 | 64 | |
| 20260502200214 | 61 | 233 | 2.0 | 3.0 | 0.00 | 0.05 | 0.05 | 60 | |
| 20260502195713 | 60 | 53 | 1.0 | 6.0 | 0.00 | 0.05 | 0.05 | 61 | |
| 20260502195209 | 59 | 205 | 4.0 | 7.0 | 0.00 | 0.05 | 0.05 | 59 | |
| 20260502194706 | 58 | 228 | 2.0 | 3.0 | 0.00 | 0.05 | 0.05 | 59 | |
| 20260502194203 | 58 | 276 | 2.0 | 3.0 | 0.00 | 0.05 | 0.05 | 59 | |
| 20260502193658 | 59 | 230 | 2.0 | 9.0 | 0.00 | 0.05 | 0.05 | 59 | |
| 20260502193156 | 58 | 63 | 2.0 | 5.0 | 0.00 | 0.05 | 0.05 | 58 | |
| 20260502192651 | 58 | 226 | 4.0 | 7.0 | 0.00 | 0.05 | 0.05 | 59 | |
| 20260502192149 | 59 | 256 | 2.0 | 7.0 | 0.00 | 0.05 | 0.05 | 63 | |
| 20260502191645 | 59 | 182 | 2.0 | 7.0 | 0.00 | 0.05 | 0.05 | 65 | |
| 20260502191143 | 58 | 58 | 2.0 | 6.0 | 0.00 | 0.05 | 0.05 | 67 | |
| 20260502190640 | 59 | 278 | 5.0 | 9.0 | 0.00 | 0.05 | 0.05 | 66 | |
| 20260502190138 | 55 | 316 | 3.0 | 5.0 | 0.00 | 0.05 | 0.05 | 71 | |
| 20260502185632 | 56 | 286 | 5.0 | 11.0 | 0.00 | 0.05 | 0.05 | 74 | |
| 20260502185129 | 56 | 217 | 3.0 | 7.0 | 0.00 | 0.05 | 0.05 | 74 | |
| 20260502184625 | 56 | 168 | 1.0 | 8.0 | 0.00 | 0.05 | 0.05 | 77 | |
| 20260502184121 | 56 | 194 | 2.0 | 6.0 | 0.00 | 0.05 | 0.05 | 77 |